Overview Statistics Trail Chart Weather Telemetry Raw packets
 

This is the latest recevied weather packets stored in our database for station/object KB2EAR-13. If no packets are shown the sender has not sent any weather packets the latest 10 day(s).

<< 106 107 108 109 110 111 112 >>
Time Temp. Humidity Pressure Rain* Wind** Luminosity Snow
1787856017 21.11° C 97% 1016.5 hPa 0 mm - - -
1787855717 21.11° C 97% 1016.7 hPa 1.27 mm - - -
1787855417 20.56° C 97% 1016.7 hPa 5.08 mm - - -
1787855117 20.56° C 97% 1017 hPa 5.84 mm - - -
1787854817 20.56° C 97% 1016.7 hPa 12.95 mm - - -
1787854517 20.56° C 97% 1016.9 hPa 21.34 mm - - -
1787854217 20.56° C 96% 1016.8 hPa 25.15 mm - - -
1787853917 20.56° C 96% 1016.9 hPa 26.67 mm - - -
1787853617 20.56° C 97% 1016.8 hPa 27.43 mm - - -
1787853318 20.56° C 97% 1016.7 hPa 28.19 mm - - -
1787853017 20° C 97% 1016.5 hPa 28.96 mm - - -
1787852717 20° C 96% 1016.3 hPa 28.96 mm - - -
1787852417 19.44° C 96% 1016.3 hPa 29.72 mm - - -
1787852117 19.44° C 96% 1016.5 hPa 34.29 mm - - -
1787851817 19.44° C 95% 1016.7 hPa 35.31 mm - - -
1787851517 19.44° C 94% 1017.1 hPa 41.4 mm - - -
1787851217 20.56° C 93% 1018.2 hPa 37.85 mm - - -
1787850917 20.56° C 94% 1017.9 hPa 30.23 mm - - -
1787850619 20.56° C 95% 1017.5 hPa 26.42 mm - - -
1787850317 20.56° C 94% 1017.4 hPa 24.89 mm - - -
1787850017 21.11° C 94% 1017.1 hPa 24.13 mm - - -
1787849717 21.11° C 93% 1016.4 hPa 23.62 mm - - -
1787849417 21.11° C 92% 1016.4 hPa 22.86 mm - - -
1787849117 21.67° C 92% 1016.8 hPa 22.86 mm - - -
1787848817 22.22° C 91% 1016.8 hPa 22.1 mm - - -

* Rain latest hour (hover to see other rain measurements)
** Current wind speed in m/s (hover to see current wind gust speed)